Regional Weather Roundup
Issued by NWS

Home | Current Version | Previous Version | Graphics & Text | Print | Product List | Glossary On
Versions: 1 2 3 4 5 6 7 8 9 10 11 12 13 14 15 16 17 18 19 20 21 22 23 24 25 26 27
000
ASUS45 KSLC 211010
RWRUT

UTAH REGIONAL WEATHER ROUNDUP
NATIONAL WEATHER SERVICE SALT LAKE CITY UT
400 AM MDT MON MAY 21 2018

UTZ001>011-023>025-211100-

NORTHERN UTAH

CITY           SKY/WX    TMP DP  RH WIND       PRES   REMARKS
BRIGHAM CITY   PTCLDY    53  45  73 NW6       29.89F
HILL AFB       MOCLDY    55  42  62 NE14      29.90F
LOGAN          CLEAR     47  43  86 CALM      29.93S
OGDEN          MOCLDY    54  42  64 S8        29.89S
SALT LAKE CITY MOCLDY    55  49  80 CALM      29.88S
TOOELE VALLEY  MOCLDY    46  43  87 S6        29.90S
WENDOVER       CLOUDY    62  43  49 NW14      29.90F
HEBER CITY       N/A     39  36  87 CALM      29.98S
WEST JORDAN    MOCLDY    53  45  74 SW6       29.92S

$$

UTZ011>015-024>027-211100-

CENTRAL/NORTHEAST UTAH

CITY           SKY/WX    TMP DP  RH WIND       PRES   REMARKS
PROVO AIRPORT  MOCLDY    56  45  66 CALM        N/A
MOAB/CANYONLAN CLEAR     62  35  36 E9        29.89R
DELTA          PTCLDY    48  39  71 CALM      29.89S
PRICE          CLEAR     50  35  56 CALM      29.98S
RICHFIELD      CLEAR     41  41 100 CALM      29.97S
ROOSEVELT      MOCLDY    46  41  81 W5        30.02S
VERNAL         MOCLDY    52  37  56 W5        30.00S

$$

UTZ013>016-019>022-027-211100-

SOUTHERN UTAH

CITY           SKY/WX    TMP DP  RH WIND       PRES   REMARKS
BRYCE CANYON   MOCLDY    37  32  82 W8        30.06S WCI  31
CEDAR CITY     CLOUDY    55  29  36 SE5       29.92S
MILFORD        PTCLDY    44  33  65 S3        29.90R
ST GEORGE      MOSUNNY   69  27  20 CALM      29.79R
HANKSVILLE     PTCLDY    52  32  46 CALM      29.93S
KANAB          CLEAR     48  28  46 NE6       29.96S
BLANDING         N/A     52  24  33 NE7       30.04S

$$

REGIONAL REPORTS     COLORADO/ARIZONA

CITY           SKY/WX    TMP DP  RH WIND       PRES   REMARKS
CRAIG, CO      PTCLDY    38  36  92 CALM      30.05F
GRAND JUNCTION MOCLDY    56  37  49 E10       29.96S
RIFLE, CO      CLEAR     42  37  82 E5        30.05S
MONTROSE, CO   PTCLDY    43  31  62 SE6       30.05R
CORTEZ, CO     MOCLDY    46  23  40 VRB5      30.01F
COLORADO CITY    N/A     46  28  49 SE6       29.93S
PAGE, AZ       PTCLDY    62  17  17 SW3       29.87R
GRAND CANYON   MOCLDY    35  10  35 CALM      30.03S
KINGMAN, AZ    CLOUDY    65  34  31 SE9       29.81S
FLAGSTAFF, AZ  PTCLDY    33  12  41 CALM      30.05S

$$

REGIONAL REPORTS    NEVADA/IDAHO/WYOMING

CITY           SKY/WX    TMP DP  RH WIND       PRES   REMARKS
LAS VEGAS, NV  CLOUDY    75  39  27 S13       29.69S
ELY, NY        CLOUDY    46  43  89 N9        29.98R
ELKO, NV       PTCLDY    46  44  93 NW3       29.94R
POCATELLO, ID  MOCLDY    50  47  89 E5        29.95S
BURLEY, ID     MOCLDY    52  47  83 CALM      29.93S
FORT BRIDGER,    N/A     42  35  76 W7        30.08S
EVANSTON, WY   PTCLDY    45  39  79 E6        30.04F
ROCK SPRINGS,  PTCLDY    46  37  71 S9        30.04S
KEMMERER, WY   PTCLDY    41  34  75 N12       30.06F

$$




USA.gov is the U.S. government's official web portal to all federal, state and local government web resources and services.